Hourly Data Report for May 14, 2021

ST-JOVITE
QUEBEC
Current Station Operator: ECCC - MSC

46°04'49.000" N
74°33'21.000" W
238.50 m
703GDKB
71376
WJT

Download Data

Hourly Data (May 2021)
Hourly Data Report for May 14, 2021
TIME
LST
Temp Definition
°C
Dew Point Definition
°C
Rel Hum Definition
%
Precip. Amount Definition
mm

Wind Dir Definition
10's deg

Wind Spd Definition
km/h
Visibility Definition
km
Stn Press Definition
kPa
Hmdx Definition


Wind Chill Definition


Weather Definition


00:00 7.6 5.0 84 0.0 4 2   99.27     LegendNANA
01:00 7.1 4.9 86 0.0 0 1   99.28     LegendNANA
02:00 6.4 4.8 89 0.0   0   99.25     LegendNANA
03:00 5.4 4.1 91 0.0 6 1   99.26     LegendNANA
04:00 3.9 3.1 95 0.0 5 1   99.28     LegendNANA
05:00 3.6 2.9 96 0.0 4 2   99.28     LegendNANA
06:00 4.1 3.5 96 0.0 0 1   99.31     LegendNANA
07:00 7.5 6.3 92 0.0 26 2   99.31     LegendNANA
08:00 14.3 6.8 61 0.0 22 2   99.31     LegendNANA
09:00 18.0 3.9 39 0.0 25 6   99.28     LegendNANA
10:00 21.4 2.1 28 0.0 28 6   99.23     LegendNANA
11:00 22.0 1.4 26 0.0 27 8   99.18     LegendNANA
12:00 21.8 -1.1 22 0.0 27 6   99.14     LegendNANA
13:00 23.3 0.3 22 0.0 27 6   99.11     LegendNANA
14:00 22.2 0.3 23 0.0 25 10   99.07     LegendNANA
15:00 23.4 -0.5 21 0.0 25 9   99.04     LegendNANA
16:00 20.3 1.1 28 0.0 29 3   99.06     LegendNANA
17:00 20.6 0.4 26 0.0 0 1   99.03     LegendNANA
18:00 19.0 2.8 34 0.0 3 2   99.05     LegendNANA
19:00 16.6 5.0 46 0.0 1 2   99.09     LegendNANA
20:00 13.3 5.2 58 0.0 5 2   99.13     LegendNANA
21:00 12.1 4.8 61 0.0 35 2   99.17     LegendNANA
22:00 11.6 4.9 64 0.0 4 1   99.15     LegendNANA
23:00 9.3 5.1 75 0.0   0   99.16     LegendNANA

Notes on Data Quality.

Legend

  • E = Estimated
  • M = Missing
  • NA = Not Available*
  • [empty] = Indicates an unobserved value
Date modified: